Bangor, ME

12:40 AM EST on December 16, 2019 (GMT -0500)
Bangor International

Weather History for KBGR - November, 2019

Change the Weather History Date:

Saturday, November 16, 2019

  Actual Average Record
Temperature  
Mean Temperature 22 °F 37 °F  
Max Temperature 29 °F 45 °F 67 °F (1990)
Min Temperature 14 °F 29 °F 8 °F (1933)
Degree Days  
Heating Degree Days 44 28  
Month to date heating degree days 497 408  
Since 1 July heating degree days 1187 1234  
Cooling Degree Days 0 0  
Month to date cooling degree days 0 0  
Year to date cooling degree days 336 318  
Moisture  
Dew Point 5 °F    
Average Humidity 51    
Maximum Humidity 71    
Minimum Humidity 38    
Precipitation  
Precipitation 0.00 in 0.15 in 1.36 in (1983)
Month to date precipitation 1.30 2.21  
Year to date precipitation 46.12 36.46  
Snow  
Snow 0.00 in 0.00 in 4.20 in (2018)
Month to date snowfall 2.7 0.4  
Since 1 July snowfall 2.7 0.5  
Since 1 September snowfall 2.7 0.5  
Snow Depth 1.0 in    
Sea Level Pressure  
Sea Level Pressure 30.44 in    
Wind  
Wind Speed 11 mph ()    
Max Wind Speed 28 mph    
Max Gust Speed 35 mph    
Visibility 10.0 miles    
Events      
T = Trace of Precipitation, MM = Missing Value Source: Averaged Metar Reports

Daily Weather History Graph

Daily Weather History Graph

Search for Another Location

Airport or City:

Astronomy

Nov. 16, 2019 Rise Set
Actual Time 6:33 AM EST 4:06 PM EST
Civil Twilight 6:01 AM EST 4:37 PM EST
Nautical Twilight 5:26 AM EST 5:13 PM EST
Astronomical Twilight 4:51 AM EST 5:47 PM EST
Moon 7:30 PM EST 10:28 AM EST
Length of Visible Light 10h 36m
Length of Day
9h 32m
Waning Gibbous, 82% of the Moon is Illuminated
Nov 16
Waning Gibbous
Nov 19
Last Quarter
Nov 26
New
Dec 4
First Quarter
Dec 12
Full

Hourly Weather History & Observations

Time (EST) Temp. Windchill Dew Point Humidity Pressure Visibility Wind Dir Wind Speed Gust Speed Precip Events Conditions
12:53 AM 25.0 °F 10.9 °F 6.1 °F 45% 30.21 in 10.0 mi NW 19.6 mph 32.2 mph N/A   Scattered Clouds
1:53 AM 21.9 °F 8.2 °F 6.1 °F 51% 30.26 in 10.0 mi NW 16.1 mph 33.4 mph N/A   Mostly Cloudy
2:53 AM 18.0 °F 2.6 °F 3.9 °F 54% 30.30 in 10.0 mi NW 17.3 mph 26.5 mph N/A   Partly Cloudy
3:53 AM 16.0 °F 5.3 °F 1.0 °F 52% 30.33 in 10.0 mi NW 8.1 mph - N/A   Clear
4:53 AM 15.1 °F 5.2 °F -0.0 °F 51% 30.35 in 10.0 mi WNW 6.9 mph - N/A   Clear
5:53 AM 15.1 °F 3.3 °F -0.9 °F 49% 30.38 in 10.0 mi WNW 9.2 mph 16.1 mph N/A   Clear
6:53 AM 14.0 °F 2.0 °F -0.0 °F 54% 30.41 in 10.0 mi WNW 9.2 mph - N/A   Clear
7:53 AM 15.1 °F 2.5 °F 1.9 °F 56% 30.44 in 10.0 mi WNW 10.4 mph - N/A   Clear
8:53 AM 18.0 °F 5.4 °F 5.0 °F 57% 30.45 in 10.0 mi NW 11.5 mph 19.6 mph N/A   Clear
9:53 AM 19.9 °F 7.9 °F 3.0 °F 48% 30.46 in 10.0 mi NW 11.5 mph 20.7 mph N/A   Clear
10:53 AM 23.0 °F 11.1 °F 3.0 °F 42% 30.45 in 10.0 mi WNW 12.7 mph - N/A   Clear
11:53 AM 25.0 °F 14.8 °F 3.9 °F 41% 30.44 in 10.0 mi West 10.4 mph 23.0 mph N/A   Clear
12:53 PM 27.0 °F 14.7 °F 5.0 °F 39% 30.44 in 10.0 mi NW 16.1 mph 21.9 mph N/A   Clear
1:53 PM 28.0 °F 17.0 °F 6.1 °F 39% 30.43 in 10.0 mi WNW 13.8 mph - N/A   Clear
2:53 PM 28.0 °F 16.5 °F 6.1 °F 39% 30.44 in 10.0 mi NW 15.0 mph 24.2 mph N/A   Clear
3:53 PM 28.0 °F 20.0 °F 6.1 °F 39% 30.45 in 10.0 mi NW 8.1 mph - N/A   Clear
4:53 PM 26.1 °F 16.2 °F 7.0 °F 44% 30.48 in 10.0 mi WNW 10.4 mph - N/A   Clear
5:53 PM 24.1 °F 15.2 °F 7.0 °F 48% 30.50 in 10.0 mi NW 8.1 mph - N/A   Clear
6:53 PM 23.0 °F 13.1 °F 7.0 °F 50% 30.52 in 10.0 mi WNW 9.2 mph - N/A   Clear
7:53 PM 19.9 °F 8.6 °F 8.1 °F 60% 30.54 in 10.0 mi NW 10.4 mph - N/A   Clear
8:53 PM 21.0 °F 9.3 °F 8.1 °F 57% 30.55 in 10.0 mi NW 11.5 mph - N/A   Clear
9:53 PM 19.0 °F 13.9 °F 8.1 °F 62% 30.56 in 10.0 mi West 3.5 mph - N/A   Clear
10:53 PM 18.0 °F - 8.1 °F 65% 30.55 in 10.0 mi Calm Calm - N/A   Clear
11:53 PM 16.0 °F 10.4 °F 8.1 °F 71% 30.54 in 10.0 mi WNW 3.5 mph - N/A   Clear